Wind_Speed
51 51 51 52 54 56 56 56 55 50 45 44 45 45 46 49 52 53 56 58 59 57 54 54 55 57 61 63 65 65 65 63 65 60 58 60 54 43 32 25 29 38 57
54 54 55 57 59 59 58 58 53 47 45 46 48 50 53 56 58 60 62 65 62 58 57 58 61 64 65 68 70 71 71 68 66 63 59 51 58 46 39 28 28 40 52
58 58 58 62 62 61 61 57 53 49 49 50 53 56 59 61 63 66 68 68 64 64 65 66 68 70 73 75 76 76 77 75 69 66 62 51 46 54 45 37 34 39 48
61 61 64 64 64 64 62 56 54 53 54 57 60 63 65 68 70 71 70 69 70 72 73 75 77 78 80 81 82 82 82 79 75 67 62 52 45 45 46 49 44 46 49
66 66 67 67 70 68 63 58 56 58 61 64 67 69 72 72 72 73 75 76 79 81 83 84 86 87 89 90 89 88 84 80 76 69 59 53 51 50 46 54 56 56 58
69 70 71 74 72 67 62 60 62 67 69 71 73 73 73 76 79 81 83 84 86 88 89 91 92 92 91 89 88 87 87 82 78 74 67 59 51 51 53 51 64 66 67
72 74 76 74 69 66 66 68 72 75 75 75 76 79 82 84 86 89 92 94 95 95 95 93 91 91 91 91 91 92 91 88 83 79 73 66 60 59 59 63 56 72 77
76 78 76 71 70 72 74 76 77 78 80 83 85 87 90 93 95 97 97 97 97 96 97 97 96 97 98 98 99 99 100 98 94 91 87 79 71 63 65 67 63 67 79
77 74 74 76 77 78 77 78 82 85 87 90 92 94 97 97 97 98 99 101 102 104 105 105 106 107 108 107 104 103 104 101 99 96 93 89 80 73 71 67 78 72 81
76 76 76 76 78 82 85 87 88 90 91 92 95 95 96 99 101 103 106 108 110 113 113 114 114 114 115 113 111 112 112 107 107 104 99 95 93 87 77 77 84 80 82
75 78 80 81 83 86 87 88 89 91 93 95 98 102 104 106 107 109 113 117 119 121 120 121 122 120 119 119 115 113 113 113 111 108 102 101 98 96 92 82 80 93 96
80 81 82 84 86 87 86 88 91 93 96 100 105 108 112 113 117 120 122 122 124 126 127 126 127 126 122 123 121 118 115 111 111 110 108 105 102 97 96 92 87 92 98
78 79 82 85 86 88 92 95 97 100 105 108 112 115 118 120 123 126 128 131 132 132 135 134 130 125 122 121 119 119 117 114 109 108 110 107 105 100 98 95 91 93 99
78 80 84 88 91 96 100 103 106 108 111 114 118 119 122 125 127 128 130 133 136 137 138 137 135 130 125 118 115 114 111 108 105 102 105 104 102 98 94 92 93 96 97
84 87 91 94 99 103 104 107 110 114 117 120 123 127 130 133 137 140 142 143 141 138 134 126 123 118 114 114 115 108 101 97 95 93 93 92 93 90 88 86 90 93 100
92 96 100 104 107 106 107 111 116 120 124 126 130 135 141 144 146 146 148 147 140 134 127 120 115 110 104 103 105 107 105 102 95 92 91 90 87 86 85 85 84 90 95
101 105 107 109 112 113 116 119 123 128 131 133 136 140 144 146 147 148 142 134 126 120 115 111 107 104 100 100 100 99 96 94 94 90 87 85 84 83 83 83 82 84 90
107 106 108 111 113 118 123 126 131 136 140 142 145 148 151 152 149 142 130 119 115 109 103 101 100 98 96 96 93 89 84 81 82 84 84 81 81 81 81 81 80 82 84
109 112 116 120 125 129 132 135 136 142 145 150 150 151 152 144 136 125 114 108 104 101 98 93 91 89 87 89 87 82 76 72 73 76 77 77 77 79 77 76 79 79 82
120 121 125 127 130 132 140 142 146 150 154 154 156 156 148 135 123 115 110 105 100 95 91 87 85 83 80 81 80 76 67 66 69 69 70 73 73 75 74 72 74 77 83
123 123 126 129 135 138 142 147 149 153 154 154 150 139 128 121 113 106 102 98 93 89 84 80 78 77 74 72 72 70 63 61 62 62 65 67 69 70 71 71 72 77 80
129 133 133 134 139 146 151 153 154 155 150 141 130 122 115 111 106 99 95 90 85 83 80 76 73 72 68 65 64 63 60 57 53 57 61 63 64 63 65 68 70 74 77
134 139 142 145 149 153 156 155 155 148 133 124 121 112 106 102 97 92 87 83 79 75 72 68 67 65 64 62 60 55 55 53 50 53 55 57 59 61 61 65 66 67 68
141 145 148 151 153 155 157 154 141 127 121 117 111 104 96 92 89 84 79 73 71 68 65 63 60 59 59 60 55 53 50 49 47 47 49 53 54 57 59 58 59 59 61
147 149 151 153 156 153 144 133 120 117 113 106 99 93 89 85 79 75 72 68 65 60 57 57 54 54 55 54 51 49 46 44 43 42 45 47 46 46 46 47 49 52 54
147 150 153 154 143 133 120 116 111 108 100 93 88 84 80 76 71 66 65 63 57 53 50 48 49 50 49 49 45 43 40 37 36 37 39 38 38 40 39 41 43 46 50
Wind_Direction
288 292 291 297 299 297 298 299 298 296 289 285 284 283 283 283 283 285 287 290 292 291 289 287 286 288 291 295 297 298 300 301 302 299 309 306 302 303 298 280 250 232 228
288 292 296 298 298 297 299 300 298 292 287 284 285 284 283 284 285 287 288 290 290 288 287 287 288 290 291 292 295 296 297 297 297 297 300 296 292 290 287 277 252 234 224
291 293 296 297 298 298 299 298 293 289 285 284 284 284 284 286 287 288 289 290 289 289 290 290 290 290 291 292 293 294 294 294 292 292 292 292 276 281 274 267 251 241 231
289 292 295 296 295 296 296 294 289 288 287 286 286 287 288 288 289 290 291 291 291 291 290 290 290 291 291 291 291 291 292 291 289 286 285 284 268 275 270 258 251 239 238
290 292 294 296 296 295 294 292 290 289 288 287 288 288 289 289 290 291 291 291 290 290 291 291 292 292 293 292 292 292 291 291 290 287 283 278 259 257 262 255 248 241 236
289 290 293 295 294 292 291 291 291 289 288 288 289 289 290 290 290 290 290 290 291 292 292 291 290 290 291 291 290 291 291 290 290 288 285 277 261 250 255 250 250 242 237
288 291 292 292 290 290 291 290 289 289 290 289 289 290 290 290 290 290 290 290 290 291 292 292 293 294 295 294 293 294 294 292 290 289 286 280 269 255 247 245 258 250 242
289 289 289 288 290 290 290 289 289 289 290 290 291 292 291 290 291 292 292 293 294 295 295 294 293 293 292 292 292 291 291 291 289 288 287 284 275 260 246 244 244 248 250
287 286 288 289 289 289 289 287 288 289 291 291 290 290 293 295 295 295 295 295 294 294 295 294 293 293 294 292 290 289 289 288 286 286 286 286 282 270 256 246 241 245 242
286 287 287 288 289 289 289 290 292 292 290 290 293 295 295 295 294 293 294 293 293 293 294 294 293 292 291 290 289 288 287 287 286 285 284 282 281 279 267 257 242 240 238
285 286 288 290 289 289 290 291 292 292 293 293 293 294 296 296 295 294 295 295 294 293 293 293 292 292 292 291 290 288 287 285 283 281 279 278 277 276 272 262 253 239 237
285 285 286 287 290 293 294 293 294 295 296 297 297 297 297 297 297 296 296 296 294 293 293 293 292 291 291 290 288 287 285 282 281 280 277 275 273 271 269 264 253 243 238
286 287 289 293 294 294 294 294 295 295 296 296 296 295 294 293 294 294 294 294 294 294 295 294 293 291 290 289 287 286 284 281 279 279 277 275 273 269 266 262 255 244 241
288 290 291 292 292 293 295 295 294 293 293 293 294 295 294 294 294 293 294 294 295 295 294 294 294 293 292 289 286 284 282 280 277 275 275 273 272 270 266 261 255 248 243
292 292 292 291 292 293 294 295 295 296 296 296 297 297 296 296 297 297 297 297 297 295 293 292 291 290 290 290 289 286 282 280 276 274 271 270 269 267 265 259 255 250 245
291 291 291 292 293 294 294 295 296 297 298 297 297 297 298 298 299 299 299 298 296 295 293 292 291 289 287 286 285 285 284 281 277 273 270 267 265 263 261 259 254 250 247
291 293 294 294 293 293 294 296 296 297 298 299 298 298 299 298 298 297 297 297 296 294 294 292 291 289 288 285 282 279 277 277 275 272 269 265 261 259 257 255 252 250 248
291 290 292 295 294 294 294 296 296 297 298 298 298 300 300 300 300 299 300 298 297 296 294 291 290 289 288 286 282 280 277 273 271 269 267 264 261 257 254 252 251 249 248
293 293 292 294 296 296 295 296 297 298 299 300 302 302 302 300 300 301 302 300 297 295 293 292 290 289 287 284 282 278 276 273 269 266 264 262 260 257 252 249 249 248 247
292 291 292 293 293 294 296 299 300 300 300 301 302 302 301 301 302 303 302 301 299 296 294 294 291 289 286 283 281 280 277 273 270 267 264 261 258 257 253 248 247 246 245
290 292 293 294 296 296 297 298 299 300 302 302 301 300 300 302 303 303 302 300 298 297 296 293 292 289 286 284 283 282 277 271 268 266 263 259 256 254 253 249 244 243 243
291 291 293 295 297 297 297 299 301 302 302 300 300 301 303 304 303 303 301 299 298 296 296 294 291 288 287 285 281 279 276 273 269 266 262 259 256 252 251 249 245 244 242
291 292 293 294 296 297 297 300 302 302 300 301 302 304 304 303 302 300 298 299 298 295 294 292 290 289 287 284 281 278 276 273 268 264 262 260 256 252 247 247 246 243 243
291 293 294 295 296 298 300 302 301 300 301 302 303 303 304 302 300 300 300 298 296 296 296 293 290 287 284 282 282 279 276 272 268 265 261 259 257 255 252 249 248 246 242
291 292 294 297 299 300 300 299 299 301 302 302 302 303 302 300 301 301 299 299 297 296 294 291 288 284 282 281 280 278 275 272 269 265 261 261 260 259 256 252 248 246 243
292 294 297 299 300 298 299 299 301 301 300 301 303 302 301 301 302 302 300 299 297 296 294 291 288 287 282 281 280 280 279 274 270 266 264 261 258 256 253 248 244 241 239
Height
10754 10752 10748 10746 10742 10737 10733 10729 10725 10722 10721 10719 10717 10715 10713 10709 10707 10705 10702 10700 10698 10695 10692 10688 10686 10682 10677 10672 10668 10664 10660 10658 10651 10647 10645 10636 10636 10636 10632 10627 10627 10633 10638
10745 10741 10739 10735 10730 10725 10722 10718 10715 10712 10709 10708 10706 10703 10700 10697 10695 10693 10690 10686 10684 10681 10679 10675 10672 10668 10664 10660 10655 10650 10646 10646 10641 10638 10635 10633 10625 10629 10627 10626 10623 10623 10627
10734 10731 10728 10723 10719 10714 10710 10706 10703 10701 10698 10696 10693 10690 10686 10684 10682 10678 10675 10672 10668 10665 10663 10660 10657 10653 10648 10644 10640 10635 10631 10628 10630 10625 10622 10622 10618 10616 10620 10616 10617 10616 10618
10723 10719 10715 10710 10706 10701 10698 10695 10693 10690 10687 10683 10679 10676 10673 10671 10667 10664 10660 10656 10653 10649 10645 10642 10638 10634 10630 10626 10622 10618 10614 10611 10611 10613 10609 10608 10605 10603 10606 10607 10606 10605 10606
10710 10705 10702 10698 10692 10688 10685 10683 10682 10678 10673 10669 10665 10661 10657 10653 10649 10646 10642 10638 10633 10630 10626 10622 10617 10613 10608 10604 10600 10596 10594 10592 10589 10592 10594 10593 10589 10587 10587 10592 10594 10595 10594
10696 10692 10688 10683 10678 10675 10673 10671 10668 10661 10657 10653 10649 10644 10641 10637 10632 10627 10622 10618 10614 10609 10604 10599 10595 10590 10586 10582 10578 10574 10570 10570 10569 10568 10571 10575 10575 10575 10572 10570 10575 10579 10580
10683 10678 10673 10668 10663 10662 10659 10656 10651 10645 10641 10637 10633 10628 10624 10619 10613 10607 10602 10597 10592 10586 10581 10576 10570 10566 10560 10556 10554 10550 10546 10544 10544 10543 10546 10549 10554 10556 10554 10554 10551 10556 10559
10667 10662 10656 10653 10651 10647 10643 10638 10633 10628 10623 10619 10615 10610 10603 10597 10592 10585 10577 10571 10565 10560 10555 10550 10545 10540 10536 10532 10529 10526 10522 10520 10518 10516 10517 10519 10524 10530 10532 10534 10532 10533 10535
10650 10645 10641 10638 10634 10630 10625 10620 10615 10611 10606 10600 10592 10586 10581 10575 10567 10561 10554 10548 10541 10535 10529 10523 10518 10512 10508 10504 10500 10497 10494 10493 10490 10490 10490 10489 10492 10500 10504 10506 10510 10512 10510
10634 10630 10626 10622 10617 10612 10606 10601 10598 10592 10585 10578 10572 10566 10560 10553 10545 10538 10530 10523 10515 10508 10502 10495 10488 10482 10475 10470 10469 10465 10462 10462 10458 10460 10461 10460 10460 10465 10471 10474 10477 10482 10486
10618 10614 10610 10605 10598 10592 10588 10584 10578 10571 10563 10557 10550 10543 10535 10527 10518 10510 10501 10493 10486 10476 10470 10464 10457 10450 10443 10436 10433 10430 10427 10424 10424 10422 10423 10424 10425 10428 10431 10438 10443 10448 10454
10604 10599 10593 10586 10580 10575 10568 10562 10556 10550 10543 10534 10525 10516 10507 10496 10487 10478 10469 10460 10454 10444 10435 10429 10424 10417 10409 10400 10394 10390 10387 10386 10384 10383 10383 10386 10386 10392 10390 10395 10405 10411 10416
10587 10581 10574 10568 10561 10554 10547 10540 10532 10525 10518 10510 10502 10493 10483 10473 10462 10450 10436 10423 10412 10405 10393 10383 10380 10376 10369 10362 10355 10349 10344 10341 10344 10342 10340 10341 10342 10350 10352 10355 10365 10371 10377
10569 10563 10556 10549 10541 10533 10526 10518 10509 10501 10493 10484 10474 10463 10451 10439 10428 10417 10408 10397 10383 10371 10358 10344 10331 10323 10318 10316 10311 10304 10301 10299 10300 10299 10299 10299 10299 10304 10311 10317 10323 10332 10342
10549 10542 10535 10527 10520 10511 10500 10489 10478 10469 10458 10448 10438 10426 10413 10399 10387 10373 10361 10350 10339 10325 10314 10308 10298 10289 10280 10270 10256 10251 10256 10260 10260 10261 10260 10261 10261 10266 10270 10280 10284 10291 10304
10523 10516 10508 10499 10490 10482 10473 10463 10452 10441 10430 10418 10406 10391 10375 10362 10347 10332 10315 10300 10289 10280 10270 10262 10252 10246 10241 10235 10224 10215 10211 10211 10218 10221 10221 10223 10225 10227 10234 10241 10249 10255 10264
10500 10491 10481 10471 10463 10454 10444 10433 10422 10410 10397 10383 10371 10355 10341 10326 10311 10295 10280 10265 10252 10239 10228 10219 10212 10203 10199 10191 10184 10180 10179 10181 10179 10180 10182 10186 10191 10194 10198 10205 10215 10220 10228
10475 10467 10457 10447 10436 10424 10413 10404 10390 10378 10364 10350 10334 10320 10299 10280 10264 10247 10235 10224 10210 10201 10191 10182 10172 10164 10158 10149 10145 10143 10145 10148 10149 10146 10146 10152 10156 10161 10168 10174 10182 10187 10195
10448 10440 10429 10419 10408 10392 10379 10370 10359 10343 10327 10310 10297 10277 10255 10235 10221 10208 10194 10183 10172 10161 10152 10145 10139 10130 10127 10114 10110 10110 10113 10117 10117 10114 10117 10121 10124 10125 10137 10148 10151 10158 10164
10423 10415 10405 10394 10378 10364 10347 10337 10324 10307 10288 10274 10256 10235 10214 10198 10186 10171 10156 10145 10134 10128 10121 10115 10106 10099 10095 10085 10080 10080 10086 10088 10085 10087 10090 10091 10096 10098 10107 10118 10125 10130 10130
10394 10382 10374 10364 10349 10332 10315 10305 10290 10272 10256 10239 10222 10202 10184 10169 10153 10139 10125 10112 10104 10096 10089 10083 10078 10071 10066 10062 10055 10053 10056 10059 10061 10062 10060 10063 10067 10072 10080 10090 10097 10099 10103
10366 10351 10344 10337 10322 10301 10280 10270 10257 10237 10220 10200 10184 10169 10155 10138 10120 10108 10096 10085 10077 10069 10062 10057 10051 10045 10041 10038 10034 10030 10030 10034 10040 10037 10035 10037 10042 10050 10054 10060 10069 10074 10081
10337 10323 10313 10306 10291 10268 10247 10233 10217 10198 10183 10167 10151 10137 10126 10111 10096 10082 10072 10065 10054 10046 10041 10035 10029 10025 10018 10014 10011 10012 10011 10012 10016 10015 10015 10017 10021 10026 10032 10035 10044 10055 10064
10305 10291 10280 10267 10253 10231 10212 10192 10176 10163 10150 10136 10120 10107 10097 10085 10071 10060 10050 10042 10033 10027 10022 10015 10010 10004 9998 9991 9994 9994 9994 9994 9996 9999 9998 9997 10000 10006 10012 10020 10027 10038 10047
10275 10261 10246 10231 10214 10197 10178 10158 10145 10134 10120 10106 10094 10083 10072 10060 10051 10039 10028 10021 10014 10011 10005 9996 9991 9985 9978 9976 9976 9977 9978 9979 9981 9982 9981 9982 9986 9991 9998 10006 10012 10020 10028
10244 10230 10214 10195 10177 10162 10145 10129 10118 10105 10093 10081 10071 10060 10051 10039 10030 10023 10009 10002 9999 9993 9988 9981 9973 9966 9963 9958 9962 9962 9964 9966 9968 9968 9969 9971 9974 9977 9982 9987 9994 10001 10008